User: anonymous   Login
Location: Lourdes
(43.1000°N, 0.0500°W)
Time: 22:53:41
(UTC+00:00)
Language:

COSMOS 2251 DEB - Orbit

View from above orbital plane
View from above orbital plane
View from above satellite
View from above satellite

Ground track
Ground track

The orbit data is extracted from the following two-line orbital elements,

1 39583U 93036BUN 21174.40903070  .00000640  00000-0  19050-3 0  9995
2 39583  73.9381  60.9135 0202017 173.1760 187.2222 14.34117441382188
Epoch (UTC): 23 June 2021 09:49:00
Eccentricity: 0.0202017
inclination: 73.9381°
perigee height: 633 km
apogee height: 922 km
right ascension of ascending node: 60.9135°
argument of perigee: 173.1760°
revolutions per day: 14.34117441
mean anomaly at epoch: 187.2222°
orbit number at epoch: 38218

The dashed part of the orbit path shows where the satellite is in the earth's shadow,  

DLR